Location: Pensacola
(30.4142°N, 87.2155°W)
Time: 14:09:59
(UTC-05:00)

Envisat - Visible Passes

Search period start: 24 September 2017 00:00
Search period end: 04 October 2017 00:00
Orbit: 764 x 766 km, 98.2° (Epoch: 24 September)

Date Brightness Start Highest point End Pass type
(mag) Time Alt. Az. Time Alt. Az. Time Alt. Az.
24 Sep 4.0 19:57:59 25° ENE 19:58:06 25° ENE 20:02:14 10° NNE visible
24 Sep 5.0 21:38:13 25° WNW 21:38:13 25° WNW 21:41:16 10° NW visible
25 Sep 4.9 19:21:01 10° ENE 19:21:49 10° ENE 19:22:39 10° NE visible
25 Sep 3.6 21:01:14 53° NW 21:01:14 53° NW 21:05:14 10° NNW visible
26 Sep 3.4 20:24:15 44° NE 20:24:15 44° NE 20:28:24 10° N visible
26 Sep 5.8 22:04:28 12° WNW 22:04:28 12° WNW 22:05:27 10° WNW visible
27 Sep 4.3 19:47:16 20° ENE 19:47:16 20° ENE 19:50:43 10° NNE visible
27 Sep 4.8 21:27:29 28° WNW 21:27:29 28° WNW 21:30:28 10° NNW visible
28 Sep 3.6 20:50:30 49° NNW 20:50:30 49° NNW 20:54:10 10° NNW visible
29 Sep 3.8 20:13:32 33° NE 20:13:32 33° NE 20:17:07 10° N visible
29 Sep 5.7 21:53:45 15° WNW 21:53:45 15° WNW 21:55:06 10° NW visible
30 Sep 4.6 19:36:34 15° ENE 19:36:34 15° ENE 19:39:01 10° NNE visible
30 Sep 4.6 21:16:47 30° NW 21:16:47 30° NW 21:19:35 10° NNW visible
01 Oct 3.8 20:39:48 39° N 20:39:48 39° N 20:43:03 10° N visible
02 Oct 4.2 20:02:50 25° NE 20:02:50 25° NE 20:05:46 10° NNE visible
02 Oct 5.5 21:43:03 17° NW 21:43:03 17° NW 21:44:31 10° NW visible
03 Oct 4.9 19:25:51 11° ENE 19:25:51 11° ENE 19:26:54 10° NE visible
03 Oct 4.6 21:06:04 29° NNW 21:06:04 29° NNW 21:08:36 10° NNW visible
